Flag for Poland Weather past 2 weeks in Gdynia, Poland

Now
36 °F

Passing clouds.


Feels Like: 29 °F
Forecast: 33 / 43 °F
Wind: 8 mph from South

Location: Gdansk-Rebiechowo

Current Time: Oct 24, 2014 at 9:06:00 PM

Latest Report: Oct 24, 2014 at 8:30 PM


Visibility: N/A

Pressure: 30.33 "Hg

Humidity: 65%

Dew point: 25 °F

Location of GdyniaLocation

Historic Weather in Gdynia — Graph

°F

Gdynia temperature yesterday

Maximum temperature yesterday: 41 °F (at 12:00 AM)
Minimum temperature yesterday: 37 °F (at 8:00 AM)
Average temperature yesterday: 39 °F

Past Weeks' High & Low Weather Summary

 TemperatureHumidityPressure
High66 °F (Oct 10, 1:30 PM)100% (Oct 11, 8:00 AM)30.33 "Hg (Oct 11, 8:00 AM)
Low36 °F (Oct 24, 3:00 AM)52% (Oct 10, 2:00 PM)29.53 "Hg (Oct 22, 2:00 AM)
Average51 °F90%29.89 "Hg
* Reported Oct 9 7:00 PM — Oct 24 7:30 PM, Gdynia, Weather by CustomWeather, © 2014

Note: Actual official high and low records may vary slightly from our data, if they occured in-between our weather recording intervals... More about our weather records

Advertising

Gdynia weather history for previous 24 hours

 ConditionsComfort  
Time TempWeatherWind HumidityBarometerVisibility
7:30 PM
Oct 24
37 °FPassing clouds.6 mph65%30.33 "HgN/A
7:00 PM37 °FPassing clouds.6 mph70%30.30 "HgN/A
6:30 PM37 °FPassing clouds.5 mph70%30.30 "HgN/A
6:00 PM37 °FPassing clouds.3 mph70%30.30 "HgN/A
5:30 PM39 °FPassing clouds.5 mph65%30.30 "HgN/A
5:00 PM39 °FPassing clouds.7 mph65%30.30 "HgN/A
4:30 PM41 °FPassing clouds.6 mph61%30.30 "HgN/A
4:00 PM41 °FPassing clouds.8 mph61%30.30 "HgN/A
3:30 PM43 °FPassing clouds.8 mph61%30.30 "HgN/A
3:00 PM43 °FPassing clouds.8 mph57%30.33 "HgN/A
2:30 PM43 °FPassing clouds.8 mph61%30.33 "HgN/A
2:00 PM45 °FPassing clouds.7 mph57%30.33 "HgN/A
1:30 PM43 °FPassing clouds.7 mph57%30.33 "HgN/A
1:00 PM43 °FPassing clouds.8 mph57%30.33 "HgN/A
12:30 PM43 °FPassing clouds.8 mph61%30.33 "HgN/A
12:00 PM41 °FPassing clouds.9 mph61%30.33 "HgN/A
11:30 AM41 °FPassing clouds.8 mph61%30.33 "HgN/A
11:00 AM39 °FPassing clouds.8 mph65%30.33 "HgN/A
10:30 AM37 °FPartly sunny.8 mph70%30.33 "HgN/A
10:00 AM36 °FPartly sunny.7 mph75%30.33 "HgN/A
9:30 AM36 °FPartly sunny.7 mph75%30.33 "HgN/A
9:00 AM36 °FPartly sunny.7 mph75%30.33 "HgN/A
8:30 AM36 °FPassing clouds.7 mph75%30.33 "HgN/A
8:00 AM36 °FPassing clouds.7 mph75%30.33 "HgN/A
7:30 AM36 °FPassing clouds.5 mph75%30.33 "HgN/A
7:00 AM36 °FPassing clouds.6 mph75%30.33 "HgN/A
6:30 AM36 °FPassing clouds.6 mph75%30.33 "HgN/A
6:00 AM36 °FPassing clouds.6 mph75%30.33 "HgN/A
5:30 AM36 °FPassing clouds.6 mph81%30.30 "HgN/A
5:00 AM36 °FPassing clouds.5 mph81%30.30 "HgN/A
4:30 AM36 °FPassing clouds.6 mph81%30.30 "HgN/A
4:00 AM36 °FPassing clouds.7 mph81%30.30 "HgN/A
3:30 AM36 °FPassing clouds.8 mph81%30.30 "HgN/A
3:00 AM36 °FPassing clouds.8 mph87%30.30 "HgN/A
2:30 AM37 °FPassing clouds.7 mph81%30.30 "HgN/A
2:00 AM37 °FPassing clouds.6 mph87%30.30 "HgN/A
1:30 AM37 °FPassing clouds.7 mph87%30.30 "HgN/A
1:00 AM37 °FPassing clouds.6 mph87%30.30 "HgN/A
12:30 AM37 °FPassing clouds.8 mph87%30.30 "HgN/A
12:00 AM39 °FPassing clouds.7 mph81%30.30 "HgN/A
11:30 PM
Oct 23
39 °FPassing clouds.8 mph87%30.30 "HgN/A
11:00 PM39 °FPassing clouds.5 mph87%30.30 "HgN/A
10:30 PM39 °FPassing clouds.8 mph87%30.30 "HgN/A
10:00 PM39 °FPassing clouds.6 mph81%30.27 "HgN/A
9:30 PM39 °FPassing clouds.8 mph81%30.27 "HgN/A
9:00 PM39 °FPassing clouds.8 mph87%30.27 "HgN/A
Weather by CustomWeather, © 2014

See weather overviewHow to use our weather pages